PE1RXF-13 Weather Reports


time (UTC)temp
F
wind
direction
speed
knots
gust
knots
rain 1hr
in
rain 24hr
in
rain mn
in
humidity
%
barometer
mb
20260502194416 59 180 0.0 1.7 0.00 0.00 0.00 99 1014.1
20260502191414 61 45 0.0 1.7 0.00 0.00 0.00 99 1013.8
20260502184414 64 0 0.9 2.6 0.00 0.00 0.00 92 1013.7
20260502181416 67 315 0.0 1.7 0.00 0.00 0.00 70 1013.6
20260502161414 73 180 3.5 13.0 0.00 0.00 0.00 50 1014.2
20260502151414 75 270 3.5 6.1 0.00 0.00 0.00 45 1014.7
20260502121415 81 180 20.0 30.4 0.00 0.00 0.00 30 1015.8
20260502114414 80 225 12.2 26.9 0.00 0.00 0.00 22 1016.0
20260502111414 80 180 10.4 23.5 0.00 0.00 0.00 21 1016.2
20260502104414 77 225 18.2 26.9 0.00 0.00 0.00 22 1016.4
20260502101414 80 225 13.9 22.6 0.00 0.00 0.00 21 1016.7
20260502091414 77 225 12.2 21.7 0.00 0.00 0.00 26 1017.0
20260502071415 67 180 8.7 15.6 0.00 0.00 0.00 36 1017.7
20260502064415 64 180 7.0 9.6 0.00 0.00 0.00 41 1017.8
20260502061416 62 202 7.0 13.0 0.00 0.00 0.00 46 1017.9
20260502054416 54 180 4.3 9.6 0.00 0.00 0.00 63 1018.1
20260502044417 48 180 1.7 3.5 0.00 0.00 0.00 76 1018.1
20260502041416 48 180 0.9 1.7 0.00 0.00 0.00 75 1018.2
20260502034417 49 180 0.9 3.5 0.00 0.00 0.00 70 1018.4
20260502031416 49 180 1.7 3.5 0.00 0.00 0.00 70 1018.5
20260502024416 51 180 0.9 4.3 0.00 0.00 0.00 66 1018.7
20260502021416 51 180 1.7 3.5 0.00 0.00 0.00 66 1019.0
20260502001416 54 135 0.0 3.5 0.00 0.00 0.00 61 1020.2
20260501234416 53 157 0.9 4.3 0.00 0.00 0.00 64 1020.3
20260501231417 55 180 0.0 1.7 0.00 0.00 0.00 57 1020.5
20260501224415 57 180 0.0 3.5 0.00 0.00 0.00 53 1020.6
20260501221415 58 180 0.9 5.2 0.00 0.00 0.00 51 1020.6
20260501214416 58 180 0.0 1.7 0.00 0.00 0.00 50 1020.8
20260501211416 60 90 0.9 3.5 0.00 0.00 0.00 45 1020.8
20260501204415 61 90 0.9 3.5 0.00 0.00 0.00 44 1020.9
20260501201415 63 90 0.9 3.5 0.00 0.00 0.00 42 1021.1